15 daagse weersverwachting Stavanger (NO)

  • Overzicht
  • Per uur
  • 15 dagen
  • Extra
  • Vergelijk
  • Kaarten
  • Dagkaart
  • Meer »
  • Info
  • Statistieken
  • Directe link
    Temp 6h Neerslag Wind  
 07:10     19:55    Daglengte: 12:45 Morgen
02:00
11°
1.4 mm
6
08:00
11°
0.9 mm
8
14:00
12°
3.9 mm
6
20:00
11°
10.7 mm
7
 07:12     19:52    Daglengte: 12:40 Dinsdag 17 Sep
02:00
10°
8.0 mm
9
08:00
14.4 mm
8
14:00
11°
10.1 mm
8
20:00
11°
 
9
 07:15     19:49    Daglengte: 12:34 Woensdag 18 Sep
02:00
10°
 
7
08:00
 
6
14:00
12°
 
7
20:00
11°
 
7
Locatie info
Region: Rogaland
Latitude: 58.9710°N
Longitude: 5.7306°E
15 masl
Postcode: 4006
Temp/Neerslag /Baro Onweer/Dauwpunt
    Temp Baro 1h Neerslag Dauwpunt Wind UV Bewolking  
 07:08     19:57    Daglengte: 12:49 Vandaag
23:00
11°
1012.7 hPa 1.1 mm
48%
7.0°
9
Windvlaag: 9.8 km/h
32%
 07:10     19:55    Daglengte: 12:45 Morgen
00:00
11°
1013.1 hPa
81%
6.9°
8
Windvlaag: 9.2 km/h
40%
01:00
11°
1013.2 hPa
82%
6.8°
7
Windvlaag: 8.1 km/h
26%
02:00
11°
1013.1 hPa 0.3 mm
76%
7.5°
6
Windvlaag: 7.7 km/h
44%
03:00
10°
1012.9 hPa 0.4 mm
72%
7.0°
6
Windvlaag: 7.3 km/h
57%
04:00
10°
1012.9 hPa 0.5 mm
74%
7.5°
6
Windvlaag: 8 km/h
52%
05:00
10°
1012.9 hPa
74%
6.7°
7
Windvlaag: 8.4 km/h
50%
06:00
10°
1012.9 hPa
74%
6.8°
7
Windvlaag: 9.2 km/h
40%
07:00
10°
1013.0 hPa
73%
6.2°
7
Windvlaag: 7.9 km/h
37%
08:00
11°
1013.3 hPa
75%
5.6°
8
Windvlaag: 7.5 km/h
14%
09:00
11°
1013.6 hPa
72%
5.0°
7
Windvlaag: 8.3 km/h
21%
10:00
11°
1013.9 hPa
80%
5.6°
7
Windvlaag: 7.5 km/h
50%
11:00
11°
1013.8 hPa 0.7 mm
81%
5.9°
5
Windvlaag: 7.2 km/h
42%
12:00
11°
1013.6 hPa 0.9 mm
82%
6.6°
5
Windvlaag: 6.6 km/h
57%
13:00
11°
1013.2 hPa 1.3 mm
82%
8.2°
5
Windvlaag: 8.7 km/h
72%
14:00
12°
1013.2 hPa 0.9 mm
81%
9.4°
6
Windvlaag: 6.7 km/h
64%
15:00
12°
1012.7 hPa 1.2 mm
81%
8.4°
7
Windvlaag: 8.8 km/h
85%
16:00
12°
1012.3 hPa 1.3 mm
82%
7.8°
6
Windvlaag: 9 km/h
56%
17:00
12°
1012.1 hPa 1.8 mm
82%
8.8°
7
Windvlaag: 10.1 km/h
74%
18:00
12°
1011.9 hPa 2.2 mm
82%
7.8°
7
Windvlaag: 8.3 km/h
65%
19:00
12°
1011.5 hPa 2.0 mm
82%
7.7°
7
Windvlaag: 8.2 km/h
79%
20:00
11°
1011.3 hPa 2.3 mm
82%
8.2°
7
Windvlaag: 11 km/h
47%
21:00
11°
1011.4 hPa 2.1 mm
82%
6.8°
7
Windvlaag: 9.3 km/h
44%
22:00
11°
1011.4 hPa
82%
5.6°
7
Windvlaag: 8.8 km/h
42%
23:00
10°
1011.3 hPa 1.9 mm
82%
5.5°
7
Windvlaag: 8.7 km/h
67%
 07:12     19:52    Daglengte: 12:40 Dinsdag 17 Sep
00:00
10°
1011.4 hPa 2.0 mm
82%
4.5°
8
Windvlaag: 9.9 km/h
69%
01:00
10°
1011.3 hPa
82%
4.0°
8
Windvlaag: 9.1 km/h
51%
02:00
10°
Voelt als: 6.2°
1011.1 hPa 2.0 mm
82%
4.3°
9
Windvlaag: 9.2 km/h
82%
03:00
10°
Voelt als: 6.5°
1010.7 hPa 2.0 mm
82%
4.8°
8
Windvlaag: 10 km/h
76%
04:00
10°
Voelt als: 6.7°
1010.2 hPa 2.4 mm
82%
4.6°
8
Windvlaag: 11 km/h
74%
05:00
Voelt als: 5.5°
1009.8 hPa 2.4 mm
82%
6.0°
10
Windvlaag: 12.9 km/h
80%
06:00
Voelt als: 5.1°
1009.3 hPa 2.5 mm
82%
6.0°
9
Windvlaag: 15.4 km/h
78%
07:00
Voelt als: 4.4°
1009.3 hPa 2.5 mm
82%
4.0°
9
Windvlaag: 12.1 km/h
59%
08:00
Voelt als: 5.4°
1009.4 hPa 2.6 mm
82%
5.4°
8
Windvlaag: 10.9 km/h
66%
09:00
Voelt als: 5.4°
1009.5 hPa 2.6 mm
82%
5.8°
7
Windvlaag: 12.3 km/h
55%
10:00
Voelt als: 6.1°
1009.9 hPa 3.5 mm
82%
5.4°
7
Windvlaag: 4.7 km/h
65%
11:00
10°
1010.5 hPa
77%
6.2°
9
Windvlaag: 10 km/h
21%
12:00
10°
1011.3 hPa
67%
7.7°
9
Windvlaag: 8.3 km/h
50%
13:00
11°
1011.7 hPa
71%
7.7°
8
Windvlaag: 6.8 km/h
40%
14:00
11°
1012.3 hPa 4.1 mm
69%
7.4°
8
Windvlaag: 5.1 km/h
42%
15:00
11°
1013.1 hPa
70%
7.1°
8
Windvlaag: 7.4 km/h
34%
16:00
11°
1013.8 hPa
72%
6.5°
8
Windvlaag: 8.2 km/h
11%
17:00
12°
1014.1 hPa
88%
9.5°
9
Windvlaag: 7.5 km/h
19%
18:00
11°
1014.7 hPa
85%
6.6°
10
Windvlaag: 10.2 km/h
21%
19:00
11°
1015.4 hPa
27%
6.4°
9
Windvlaag: 9.8 km/h
21%
20:00
11°
1015.9 hPa
24%
6.2°
9
Windvlaag: 9.6 km/h
14%
21:00
10°
1016.5 hPa
25%
5.7°
10
Windvlaag: 9.7 km/h
15%
22:00
10°
1017.2 hPa
27%
5.3°
9
Windvlaag: 9.5 km/h
13%
23:00
10°
1017.8 hPa
28%
4.9°
8
Windvlaag: 9.2 km/h
12%
 07:15     19:49    Daglengte: 12:34 Woensdag 18 Sep
00:00
10°
Voelt als: 6.3°
1018.3 hPa
34%
4.2°
8
Windvlaag: 8.4 km/h
10%
01:00
10°
Voelt als: 6.7°
1018.7 hPa
24%
4.5°
8
Windvlaag: 8 km/h
13%
02:00
10°
Voelt als: 6.8°
1019.2 hPa
25%
4.4°
7
Windvlaag: 7.3 km/h
23%
03:00
Voelt als: 6.6°
1019.5 hPa
29%
4.2°
6
Windvlaag: 6.2 km/h
38%
04:00
Voelt als: 6.5°
1019.7 hPa
24%
4.1°
6
Windvlaag: 6.2 km/h
50%
05:00
Voelt als: 5.9°
1019.8 hPa
25%
4.1°
7
Windvlaag: 7.7 km/h
32%
06:00
Voelt als: 5.9°
1019.9 hPa
29%
6.0°
7
Windvlaag: 7.8 km/h
36%
07:00
Voelt als: 6.3°
1019.9 hPa
39%
6.9°
5
Windvlaag: 7.6 km/h
43%
08:00
Voelt als: 6.5°
1020.1 hPa
75%
7.5°
6
Windvlaag: 7.6 km/h
53%
09:00
10°
1020.4 hPa
35%
6.0°
7
Windvlaag: 8.5 km/h
38%
10:00
11°
1020.7 hPa
81%
5.8°
7
Windvlaag: 9.8 km/h
60%
11:00
11°
1021.1 hPa
35%
7.4°
6
Windvlaag: 9 km/h
74%
12:00
11°
1021.5 hPa
42%
7.7°
5
Windvlaag: 7.2 km/h
65%
13:00
11°
1022.0 hPa
42%
7.1°
6
Windvlaag: 7.6 km/h
59%
14:00
12°
1022.4 hPa
36%
6.3°
7
Windvlaag: 8.2 km/h
55%
15:00
12°
1022.5 hPa
45%
6.5°
7
Windvlaag: 8.7 km/h
57%
16:00
12°
1022.6 hPa
43%
6.7°
7
Windvlaag: 9.8 km/h
43%
17:00
11°
1022.7 hPa
36%
6.7°
7
Windvlaag: 10.6 km/h
47%
18:00
11°
1022.9 hPa
71%
6.6°
7
Windvlaag: 10.4 km/h
43%
19:00
11°
1023.2 hPa
30%
6.8°
7
Windvlaag: 11.5 km/h
25%
20:00
11°
1023.4 hPa
30%
6.8°
7
Windvlaag: 1.5 km/h
33%
21:00
10°
1023.2 hPa 19.3 mm
100%
6.5°
7
Windvlaag: 10.4 km/h
34%
22:00
10°
Voelt als: 7.0°
1023.5 hPa 19.3 mm
100%
6.4°
7
Windvlaag: 10.1 km/h
39%
Temp/Neerslag /Baro Onweer/Dauwpunt
    Temp Baro Neerslag Dauwpunt Wind Bewolking  
 07:08     19:57    Daglengte: 12:49 Vandaag
23:00
11°
1012.7 hPa 1.1 mm 7.0°
9
32%
 07:10     19:55    Daglengte: 12:45 Morgen
02:00
11°
1013.1 hPa 0.3 mm 7.5°
6
44%
05:00
10°
1012.9 hPa 0.9 mm 6.7°
7
50%
08:00
11°
1013.3 hPa   5.6°
8
14%
11:00
11°
1013.8 hPa 0.7 mm 5.9°
5
42%
14:00
12°
1013.2 hPa 3.1 mm 9.4°
6
64%
17:00
12°
1012.1 hPa 4.3 mm 8.8°
7
74%
20:00
11°
1011.3 hPa 6.4 mm 8.2°
7
47%
23:00
10°
1011.3 hPa 4.0 mm 5.5°
7
67%
 07:12     19:52    Daglengte: 12:40 Dinsdag 17 Sep
02:00
10°
Voelt als: 6.2°
1011.1 hPa 4.0 mm 4.3°
9
82%
05:00
Voelt als: 5.5°
1009.8 hPa 6.9 mm 6.0°
10
80%
08:00
Voelt als: 5.4°
1009.4 hPa 7.6 mm 5.4°
8
66%
11:00
10°
1010.5 hPa 6.0 mm 6.2°
9
21%
14:00
11°
1012.3 hPa 4.1 mm 7.4°
8
42%
17:00
12°
1014.1 hPa   9.5°
9
19%
20:00
11°
1015.9 hPa   6.2°
9
14%
23:00
10°
1017.8 hPa   4.9°
8
12%
 07:15     19:49    Daglengte: 12:34 Woensdag 18 Sep
02:00
10°
Voelt als: 6.8°
1019.2 hPa   4.4°
7
23%
05:00
Voelt als: 5.9°
1019.8 hPa   4.1°
7
32%
08:00
Voelt als: 6.5°
1020.1 hPa   7.5°
6
53%
11:00
11°
1021.1 hPa   7.4°
6
74%
14:00
12°
1022.4 hPa   6.3°
7
55%
17:00
11°
1022.7 hPa   6.7°
7
47%
20:00
11°
1023.4 hPa   6.8°
7
33%
23:00
10°
Voelt als: 6.9°
1023.8 hPa 57.8 mm 6.2°
6
45%
 07:17     19:46    Daglengte: 12:29 Donderdag 19 Sep
02:00
Voelt als: 6.2°
1024.7 hPa 57.8 mm 5.6°
5
58%
05:00
Voelt als: 6.2°
1025.4 hPa 24.8 mm 5.7°
5
70%
08:00
Voelt als: 6.4°
1025.9 hPa 24.8 mm 5.6°
4
74%
11:00
10°
1026.6 hPa 24.8 mm 5.5°
4
79%
14:00
12°
1027.3 hPa 24.8 mm 5.1°
4
84%
17:00
11°
1027.3 hPa 24.8 mm 5.4°
5
86%
20:00
11°
1027.5 hPa 24.8 mm 5.6°
4
87%
23:00
10°
1028.3 hPa 24.8 mm 5.9°
3
88%
 07:19     19:43    Daglengte: 12:24 Vrijdag 20 Sep
02:00
10°
Voelt als: 8.8°
1029.0 hPa 24.8 mm 6.1°
2
88%
05:00
10°
1028.0 hPa 24.8 mm 7.2°
2
88%
08:00
11°
1027.0 hPa 24.8 mm 8.3°
2
88%
11:00
12°
1026.3 hPa 24.8 mm 9.1°
3
90%
14:00
13°
1025.6 hPa 24.8 mm 9.9°
4
92%
17:00
13°
1024.1 hPa 24.8 mm 10.3°
4
91%
20:00
13°
1022.6 hPa 24.8 mm 10.6°
3
91%
23:00
12°
1022.1 hPa 24.8 mm 10.6°
3
91%
 07:21     19:40    Daglengte: 12:19 Zaterdag 21 Sep
02:00
12°
1021.5 hPa 24.9 mm 10.5°
4
92%
05:00
12°
1020.1 hPa 25.0 mm 10.5°
4
92%
08:00
12°
1018.7 hPa 25.0 mm 10.3°
5
92%
11:00
13°
1017.8 hPa 25.0 mm 10.6°
6
91%
14:00
15°
1016.8 hPa 25.0 mm 10.7°
6
91%
17:00
14°
1016.3 hPa 25.0 mm 10.4°
6
45%
20:00
14°
1015.9 hPa 25.0 mm 10.0°
6
0%
23:00
13°
1014.9 hPa 25.0 mm 10.1°
6
31%
 07:24     19:37    Daglengte: 12:13 Zondag 22 Sep
02:00
13°
1013.8 hPa 25.0 mm 10.3°
6
63%
05:00
13°
1012.0 hPa 25.0 mm 10.1°
6
65%
08:00
13°
1010.3 hPa 25.0 mm 10.0°
6
67%
11:00
14°
1009.8 hPa 25.0 mm 10.1°
6
58%
14:00
16°
1009.3 hPa 25.0 mm 10.0°
6
48%
17:00
15°
1009.0 hPa 25.0 mm 10.7°
6
62%
20:00
14°
1008.7 hPa 49.9 mm 11.3°
5
76%
 07:26     19:34    Daglengte: 12:08 Maandag 23 Sep
02:00
14°
1006.4 hPa 51.0 mm 11.8°
6
76%
08:00
13°
1011.2 hPa 53.0 mm 11.7°
4
78%
14:00
14°
1011.8 hPa 53.3 mm 11.7°
5
72%
20:00
13°
1008.9 hPa 53.6 mm 11.1°
5
92%
 07:28     19:31    Daglengte: 12:03 Dinsdag 24 Sep
02:00
12°
1011.8 hPa 53.8 mm 10.8°
4
86%
08:00
12°
1009.3 hPa 53.9 mm 10.4°
4
85%
14:00
14°
1009.5 hPa 53.9 mm 10.0°
4
88%
20:00
13°
1006.6 hPa 53.9 mm 11.0°
5
90%
 07:30     19:28    Daglengte: 11:58 Woensdag 25 Sep
02:00
14°
1012.0 hPa 53.9 mm 8.2°
3
1%
08:00
15°
1010.0 hPa 54.2 mm 8.8°
5
1%
14:00
16°
1008.0 hPa 55.3 mm 11.7°
5
1%
20:00
13°
1010.1 hPa 1.8 mm 9.9°
3
64%
 07:33     19:25    Daglengte: 11:52 Donderdag 26 Sep
02:00
13°
1009.8 hPa 2.0 mm 10.0°
3
64%
08:00
13°
1009.4 hPa 2.2 mm 9.8°
3
67%
14:00
13°
1009.0 hPa 1.3 mm 10.1°
4
68%
20:00
13°
1008.1 hPa 2.5 mm 10.2°
3
68%
 07:35     19:22    Daglengte: 11:47 Vrijdag 27 Sep
02:00
13°
1008.0 hPa 1.4 mm 9.5°
2
62%
08:00
12°
1007.4 hPa 1.1 mm 9.4°
2
58%
14:00
13°
1008.5 hPa 1.0 mm 9.4°
3
53%
20:00
12°
1009.0 hPa 1.2 mm 9.4°
2
51%
 07:37     19:19    Daglengte: 11:42 Zaterdag 28 Sep
02:00
12°
1009.6 hPa 1.7 mm 9.3°
2
54%
08:00
12°
1009.2 hPa 1.3 mm 9.1°
2
53%
14:00
13°
1009.4 hPa 2.1 mm 9.3°
2
57%
20:00
13°
1009.1 hPa 1.7 mm 9.4°
2
55%
 07:39     19:16    Daglengte: 11:37 Zondag 29 Sep
02:00
12°
1009.6 hPa 1.3 mm 9.0°
1
52%
08:00
12°
1009.1 hPa 1.2 mm 8.5°
2
55%
14:00
12°
1010.7 hPa 1.6 mm 8.3°
3
53%
20:00
12°
1011.0 hPa 1.0 mm 7.8°
2
42%
 07:42     19:13    Daglengte: 11:31 Maandag 30 Sep
02:00
11°
1012.0 hPa 0.9 mm 7.7°
2
41%
08:00
11°
1011.8 hPa 1.1 mm 7.5°
2
44%
14:00
12°
1012.4 hPa 2.1 mm 7.9°
2
51%
20:00
12°
1012.4 hPa 1.3 mm 8.2°
2
54%
  CAPE Lifted Index Hail Supercell Tornado SRH 3km CL BTM PRES CL TOP PRES Swiss DWD icon SMHI TS
 07:08     19:57    Daglengte: 12:49 Vandaag
23:00 142 J/kg 4.5 K 0 % 0 % 0 % 0 m²/s² 0 0 7.38 2
 07:10     19:55    Daglengte: 12:45 Morgen
00:00 122 J/kg 5.4 K 0 % 0 % 0 % 0 m²/s² 0 0 8.19 2
01:00 91 J/kg 6.1 K 0 % 0 % 0 % 0 m²/s² 0 0 9.31 2
02:00 86 J/kg 6.6 K 0 % 0 % 0 % 0 m²/s² 0 0 9.39 2
03:00 100 J/kg 7.4 K 0 % 0 % 0 % 0 m²/s² 0 0 9.89 2
04:00 56 J/kg 7.8 K 0 % 0 % 0 % 0 m²/s² 0 0 10.59 2
05:00 155 J/kg 6.4 K 0 % 0 % 0 % 0 m²/s² 0 0 9.13 2
06:00 133 J/kg 6.7 K 0 % 0 % 0 % 0 m²/s² 0 0 9.67 2
07:00 61 J/kg 8.0 K 0 % 0 % 0 % 0 m²/s² 0 0 10.73 2
08:00 36 J/kg 8.5 K 0 % 0 % 0 % 0 m²/s² 0 0 11.02 1
09:00 124 J/kg 6.4 K 0 % 0 % 0 % 0 m²/s² 0 0 8.35 2
10:00 118 J/kg 6.1 K 0 % 0 % 0 % 0 m²/s² 0 0 7.87 3
11:00 96 J/kg 6.3 K 0 % 0 % 0 % 0 m²/s² 0 0 8.19 2
12:00 122 J/kg 5.7 K 0 % 0 % 0 % 0 m²/s² 0 0 7.53 80
13:00 222 J/kg 4.1 K 0 % 0 % 0 % 0 m²/s² 0 0 5.69 80
14:00 214 J/kg 4.0 K 0 % 0 % 0 % 0 m²/s² 0 0 4.39 3
15:00 52 J/kg 3.7 K 0 % 0 % 0 % 0 m²/s² 0 0 3.94 80
16:00 39 J/kg 3.5 K 0 % 0 % 0 % 0 m²/s² 0 0 6.11 80
17:00 317 J/kg 2.1 K 0 % 0 % 0 % 0 m²/s² 0 0 4.05 80
18:00 327 J/kg 2.7 K 0 % 0 % 0 % 0 m²/s² 0 0 3.12 80
19:00 238 J/kg 2.8 K 0 % 0 % 0 % 0 m²/s² 0 0 3.49 80
20:00 105 J/kg 3.5 K 0 % 0 % 0 % 0 m²/s² 0 0 5.39 80
21:00 162 J/kg 4.5 K 0 % 0 % 0 % 0 m²/s² 0 0 8.58 80
22:00 160 J/kg 5.1 K 0 % 0 % 0 % 0 m²/s² 0 0 9.48 80
23:00 148 J/kg 4.3 K 0 % 0 % 0 % 0 m²/s² 0 0 7.42 80
 07:12     19:52    Daglengte: 12:40 Dinsdag 17 Sep
00:00 175 J/kg 4.8 K 0 % 0 % 0 % 0 m²/s² 0 0 7.92 80
01:00 88 J/kg 5.6 K 0 % 0 % 0 % 0 m²/s² 0 0 10.16 80
02:00 162 J/kg 4.5 K 0 % 0 % 0 % 0 m²/s² 0 0 5.34 3
03:00 215 J/kg 3.8 K 0 % 0 % 0 % 0 m²/s² 0 0 4.64 80
04:00 307 J/kg 2.7 K 0 % 0 % 0 % 0 m²/s² 0 0 3.33 80
05:00 252 J/kg 2.1 K 0 % 0 % 0 % 0 m²/s² 0 0 3.3 80
06:00 342 J/kg 0.9 K 0 % 0 % 0 % 0 m²/s² 0 0 1.95 80
07:00 27 J/kg 3.9 K 0 % 0 % 0 % 0 m²/s² 0 0 4.38 80
08:00 120 J/kg 3.1 K 0 % 0 % 0 % 0 m²/s² 0 0 4.54 80
09:00 203 J/kg 1.9 K 0 % 0 % 0 % 0 m²/s² 0 0 4.96 80
10:00 220 J/kg 1.2 K 0 % 0 % 0 % 0 m²/s² 0 0 3.48 2
11:00 173 J/kg 1.2 K 0 % 0 % 0 % 0 m²/s² 0 0 3.3 2
12:00 380 J/kg -0.9 K 0 % 0 % 0 % 0 m²/s² 0 0 0.45 2
13:00 362 J/kg -0.5 K 0 % 0 % 0 % 0 m²/s² 0 0 2.29 2
14:00 278 J/kg -0.1 K 0 % 0 % 0 % 0 m²/s² 0 0 1.94 2
15:00 113 J/kg 0.9 K 0 % 0 % 0 % 0 m²/s² 0 0 3.51 3
16:00 244 J/kg -0.1 K 0 % 0 % 0 % 0 m²/s² 0 0 2.09 2
17:00 87 J/kg 1.1 K 0 % 0 % 0 % 0 m²/s² 0 0 3.71 2
18:00 70 J/kg 1.2 K 0 % 0 % 0 % 0 m²/s² 0 0 4.02 1
19:00 62 J/kg 1.3 K 0 % 0 % 0 % 0 m²/s² 0 0 4.63 0
20:00 40 J/kg 1.9 K 0 % 0 % 0 % 0 m²/s² 0 0 6.64 1
21:00 37 J/kg 2.1 K 0 % 0 % 0 % 0 m²/s² 0 0 7.08 1
22:00 43 J/kg 2.2 K 0 % 0 % 0 % 0 m²/s² 0 0 7.03 0
23:00 43 J/kg 2.2 K 0 % 0 % 0 % 0 m²/s² 0 0 6.79 0
 07:15     19:49    Daglengte: 12:34 Woensdag 18 Sep
00:00 30 J/kg 2.6 K 0 % 0 % 0 % 0 m²/s² 0 0 6.86 0
01:00 53 J/kg 2.5 K 0 % 0 % 0 % 0 m²/s² 0 0 6.43 0
02:00 107 J/kg 2.1 K 0 % 0 % 0 % 0 m²/s² 0 0 5.94 1
03:00 116 J/kg 2.0 K 0 % 0 % 0 % 0 m²/s² 0 0 5.21 3
04:00 138 J/kg 2.2 K 0 % 0 % 0 % 0 m²/s² 0 0 4.45 3
05:00 14 J/kg 4.0 K 0 % 0 % 0 % 0 m²/s² 0 0 6.31 3
06:00 41 J/kg 4.1 K 0 % 0 % 0 % 0 m²/s² 0 0 8.36 2
07:00 69 J/kg 4.5 K 0 % 0 % 0 % 0 m²/s² 0 0 8.25 2
08:00 45 J/kg 5.1 K 0 % 0 % 0 % 0 m²/s² 0 0 8.85 2
09:00 72 J/kg 4.5 K 0 % 0 % 0 % 0 m²/s² 0 0 8.55 2
10:00 52 J/kg 5.6 K 0 % 0 % 0 % 0 m²/s² 0 0 9.74 2
11:00 54 J/kg 6.5 K 0 % 0 % 0 % 0 m²/s² 0 0 11.36 3
12:00 71 J/kg 6.5 K 0 % 0 % 0 % 0 m²/s² 0 0 11.48 3
13:00 101 J/kg 6.2 K 0 % 0 % 0 % 0 m²/s² 0 0 11.21 3
14:00 99 J/kg 6.6 K 0 % 0 % 0 % 0 m²/s² 0 0 9.21 3
15:00 59 J/kg 7.3 K 0 % 0 % 0 % 0 m²/s² 0 0 9.97 3
16:00 108 J/kg 7.0 K 0 % 0 % 0 % 0 m²/s² 0 0 9.91 3
17:00 96 J/kg 7.3 K 0 % 0 % 0 % 0 m²/s² 0 0 12.31 3
18:00 73 J/kg 8.1 K 0 % 0 % 0 % 0 m²/s² 0 0 13.38 3
19:00 140 J/kg 8.1 K 0 % 0 % 0 % 0 m²/s² 0 0 14.22 3
20:00 114 J/kg 8.8 K 0 % 0 % 0 % 0 m²/s² 0 0 15.58 3
21:00 84 J/kg 9.6 K 0 % 0 % 0 % 0 m²/s² 0 0 16.89
22:00 92 J/kg 9.4 K 0 % 0 % 0 % 0 m²/s² 0 0 17.02
Temp Baro Wind Neerslag
  EWN Forecast EWN WRFDA DWD ICON FMI HIRLAM MET Norway GFS
 07:08     19:57    Daglengte: 12:49 Vandaag
23:00 11.4° 1012.7 hPa 9.5 m/s 1.1 mm 11.5° 1011.4 hPa 9.0 m/s 0.7 mm 11.1° 1012.5 hPa 9.5 m/s 1.2 mm 12.5° 1013.2 hPa 9.6 m/s 0.0 mm 11.1° 1012.8 hPa 8.3 m/s 0.0 mm 12.0° 1011.8 hPa 11.8 m/s
 07:10     19:55    Daglengte: 12:45 Morgen
02:00 10.5° 1013.1 hPa 6.0 m/s 0.3 mm 10.5° 1011.2 hPa 6.7 m/s 2.2 mm 10.3° 1013.3 hPa 6.6 m/s 0.4 mm 11.8° 1013.3 hPa 6.7 m/s 0.0 mm 9.9° 1012.7 hPa 4.5 m/s 0.0 mm 11.5° 1012.4 hPa 9.9 m/s
05:00 10.4° 1012.9 hPa 6.8 m/s 0.9 mm 10.3° 1011.1 hPa 7.6 m/s 4.6 mm 10.1° 1013.0 hPa 7.4 m/s 0.2 mm 11.4° 1013.0 hPa 5.9 m/s 0.0 mm 10.0° 1012.6 hPa 6.7 m/s 0.5 mm 11.4° 1013.0 hPa 9.7 m/s
08:00 10.5° 1013.3 hPa 7.9 m/s 0.0 mm 10.9° 1010.8 hPa 8.7 m/s 8.2 mm 10.0° 1013.5 hPa 7.6 m/s 0.4 mm 11.3° 1013.8 hPa 9.7 m/s 0.0 mm 9.8° 1013.4 hPa 5.3 m/s 0.0 mm 10.9° 1012.7 hPa 10.6 m/s
11:00 11.2° 1013.8 hPa 5.4 m/s 0.7 mm 11.7° 1010.9 hPa 7.2 m/s 9.2 mm 10.8° 1013.7 hPa 6.2 m/s 0.2 mm 12.0° 1014.5 hPa 5.6 m/s 0.0 mm 10.8° 1014.0 hPa 4.9 m/s 0.0 mm 11.6° 1012.6 hPa 8.3 m/s
14:00 12.2° 1013.2 hPa 5.8 m/s 3.1 mm 12.4° 1011.3 hPa 7.2 m/s 9.7 mm 11.7° 1013.8 hPa 5.4 m/s 1.3 mm 12.5° 1013.8 hPa 7.4 m/s 0.0 mm 12.3° 1013.2 hPa 3.7 m/s 2.0 mm 11.8° 1012.6 hPa 8.7 m/s
17:00 12.3° 1012.1 hPa 6.9 m/s 4.3 mm 12.4° 1010.2 hPa 6.9 m/s 17.0 mm 11.3° 1012.5 hPa 4.5 m/s 2.9 mm 12.4° 1014.0 hPa 8.2 m/s 0.0 mm 12.3° 1012.0 hPa 6.9 m/s 1.6 mm 12.1° 1011.8 hPa 10.7 m/s
20:00 11.3° 1011.3 hPa 7.2 m/s 6.4 mm 11.1° 1008.7 hPa 8.1 m/s 19.2 mm 11.1° 1010.9 hPa 5.2 m/s 4.4 mm 12.2° 1013.5 hPa 5.4 m/s 0.0 mm 10.7° 1011.2 hPa 7.3 m/s 0.6 mm 11.5° 1010.8 hPa 10.7 m/s
23:00 10.1° 1011.3 hPa 7.5 m/s 4.0 mm 9.8° 1009.9 hPa 4.9 m/s 20.6 mm 9.8° 1010.4 hPa 7.6 m/s 3.6 mm 11.1° 1014.6 hPa 8.1 m/s 0.0 mm 9.7° 1011.1 hPa 8.0 m/s 0.0 mm 10.8° 1011.6 hPa 11.3 m/s
 07:12     19:52    Daglengte: 12:40 Dinsdag 17 Sep
02:00 9.7° 1011.1 hPa 8.5 m/s 4.0 mm 9.3° 1010.0 hPa 11.1 m/s 22.8 mm 9.2° 1010.7 hPa 8.2 m/s 2.0 mm 11.0° 1015.0 hPa 8.5 m/s 0.0 mm 9.6° 1010.6 hPa 7.2 m/s 0.0 mm 10.4° 1011.7 hPa 12.6 m/s
05:00 9.4° 1009.8 hPa 9.7 m/s 6.9 mm 10.4° 1008.3 hPa 11.6 m/s 26.4 mm 8.6° 1009.6 hPa 8.3 m/s 3.2 mm 10.5° 1014.7 hPa 8.4 m/s 0.0 mm 7.5° 1008.8 hPa 10.0 m/s 1.3 mm 10.0° 1010.7 hPa 11.9 m/s
08:00 9.0° 1009.4 hPa 8.1 m/s 7.6 mm 9.7° 1008.0 hPa 7.7 m/s 38.0 mm 8.2° 1009.6 hPa 6.2 m/s 2.7 mm 10.6° 1014.3 hPa 9.5 m/s 0.0 mm 7.9° 1008.6 hPa 8.0 m/s 3.1 mm 9.9° 1010.7 hPa 11.2 m/s
11:00 10.4° 1010.5 hPa 9.4 m/s 6.0 mm 11.2° 1009.1 hPa 11.3 m/s 44.9 mm 9.4° 1010.6 hPa 7.8 m/s 0.9 mm 11.1° 1014.2 hPa 10.0 m/s 0.0 mm 10.0° 1010.4 hPa 6.8 m/s 1.0 mm 10.1° 1011.8 hPa 10.4 m/s
14:00 10.5° 1012.3 hPa 7.6 m/s 4.1 mm 12.0° 1010.6 hPa 9.4 m/s 52.4 mm 11.1° 1013.1 hPa 8.7 m/s 0.1 mm 10.6° 1015.2 hPa 7.9 m/s 0.0 mm 8.0° 1012.1 hPa 3.3 m/s 2.0 mm 11.0° 1013.1 hPa 12.4 m/s
17:00 11.7° 1014.1 hPa 8.9 m/s 0.0 mm 12.5° 1012.8 hPa 11.0 m/s 55.1 mm 11.8° 1014.7 hPa 9.1 m/s 0.1 mm 11.2° 1014.3 hPa 6.4 m/s 0.0 mm 11.5° 1014.4 hPa 12.9 m/s
20:00 10.9° 1015.9 hPa 9.2 m/s 0.0 mm 10.9° 1014.7 hPa 8.6 m/s 55.1 mm 10.9° 1017.4 hPa 9.1 m/s 0.1 mm 10.1° 1015.8 hPa 9.0 m/s 0.0 mm 11.3° 1016.2 hPa 12.8 m/s
23:00 10.0° 1017.8 hPa 8.5 m/s 0.0 mm 9.8° 1016.0 hPa 6.0 m/s 55.1 mm 10.0° 1019.9 hPa 8.2 m/s 0.0 mm 9.7° 1017.6 hPa 8.4 m/s 0.0 mm 10.9° 1017.7 hPa 12.6 m/s
 07:15     19:49    Daglengte: 12:34 Woensdag 18 Sep
02:00 9.9° 1019.2 hPa 6.8 m/s 0.0 mm 10.3° 1017.3 hPa 5.2 m/s 55.1 mm 9.8° 1021.1 hPa 8.1 m/s 0.0 mm 9.2° 1018.9 hPa 6.4 m/s 0.0 mm 10.5° 1018.9 hPa 12.7 m/s
05:00 9.1° 1019.8 hPa 6.7 m/s 0.0 mm 8.8° 1018.0 hPa 6.6 m/s 55.9 mm 9.6° 1022.2 hPa 7.3 m/s 0.0 mm 8.8° 1019.4 hPa 6.2 m/s 0.0 mm 10.0° 1019.6 hPa 11.7 m/s
08:00 9.4° 1020.1 hPa 6.3 m/s 0.0 mm 9.3° 1018.9 hPa 6.5 m/s 57.4 mm 10.1° 1023.1 hPa 6.3 m/s 0.0 mm 8.8° 1019.4 hPa 5.6 m/s 1.1 mm 10.0° 1020.7 hPa 12.2 m/s
11:00 10.6° 1021.1 hPa 6.2 m/s 0.0 mm 9.9° 1020.5 hPa 7.2 m/s 57.5 mm 11.3° 1024.0 hPa 4.4 m/s 0.0 mm 10.5° 1020.4 hPa 6.4 m/s 0.4 mm 10.8° 1022.2 hPa 10.8 m/s
14:00 11.7° 1022.4 hPa 6.7 m/s 0.0 mm 11.5° 1021.9 hPa 6.9 m/s 57.7 mm 12.7° 1024.5 hPa 5.7 m/s 0.0 mm 11.6° 1022.0 hPa 7.3 m/s 0.0 mm 11.6° 1022.7 hPa 10.9 m/s
17:00 11.5° 1022.7 hPa 7.4 m/s 0.0 mm 12.5° 1021.8 hPa 9.1 m/s 57.8 mm 11.9° 1025.0 hPa 7.3 m/s 0.0 mm 10.9° 1022.4 hPa 7.0 m/s 11.7° 1023.1 hPa 11.7 m/s
20:00 10.6° 1023.4 hPa 6.8 m/s 0.0 mm 11.4° 1023.4 hPa 8.4 m/s 57.8 mm 10.8° 1025.3 hPa 5.9 m/s 0.0 mm 10.2° 1022.8 hPa 6.8 m/s 11.2° 1024.5 hPa 12.5 m/s
23:00 9.8° 1023.8 hPa 6.2 m/s 57.8 mm 10.7° 1025.0 hPa 7.0 m/s 57.8 mm 9.6° 1023.6 hPa 6.1 m/s 11.0° 1026.1 hPa 13.1 m/s
 07:17     19:46    Daglengte: 12:29 Donderdag 19 Sep
02:00 9.0° 1024.7 hPa 5.4 m/s 57.8 mm 9.0° 1026.4 hPa 5.4 m/s 57.8 mm 9.0° 1024.4 hPa 5.4 m/s 10.8° 1027.0 hPa 11.8 m/s
05:00 8.9° 1025.4 hPa 4.9 m/s 24.8 mm 8.7° 1025.2 hPa 4.3 m/s 10.6° 1027.7 hPa 11.2 m/s 24.8 mm
08:00 8.7° 1025.9 hPa 4.0 m/s 24.8 mm 8.6° 1025.6 hPa 3.8 m/s 10.2° 1028.7 hPa 6.8 m/s 24.8 mm
11:00 10.1° 1026.6 hPa 4.2 m/s 24.8 mm 10.1° 1026.3 hPa 4.2 m/s 10.0° 1029.9 hPa 4.8 m/s 24.8 mm
14:00 11.5° 1027.3 hPa 4.5 m/s 24.8 mm 11.6° 1027.0 hPa 4.5 m/s 10.9° 1030.7 hPa 4.0 m/s 24.8 mm
17:00 11.1° 1027.3 hPa 4.5 m/s 24.8 mm 11.1° 1027.1 hPa 4.3 m/s 11.4° 1029.8 hPa 6.7 m/s 24.8 mm
20:00 10.6° 1027.5 hPa 4.5 m/s 24.8 mm 10.6° 1027.2 hPa 4.2 m/s 11.0° 1030.5 hPa 7.7 m/s 24.8 mm
23:00 10.1° 1028.3 hPa 3.2 m/s 24.8 mm 10.1° 1028.0 hPa 2.9 m/s 10.9° 1031.0 hPa 6.7 m/s 24.8 mm
 07:19     19:43    Daglengte: 12:24 Vrijdag 20 Sep
02:00 9.6° 1029.0 hPa 1.9 m/s 24.8 mm 9.5° 1028.8 hPa 1.6 m/s 10.7° 1030.7 hPa 5.2 m/s 24.8 mm
05:00 10.0° 1028.0 hPa 1.9 m/s 24.8 mm 10.0° 1027.8 hPa 1.8 m/s 10.5° 1029.8 hPa 2.9 m/s 24.8 mm
08:00 10.5° 1027.0 hPa 2.0 m/s 24.8 mm 10.5° 1026.8 hPa 2.0 m/s 10.5° 1029.6 hPa 1.9 m/s 24.8 mm
11:00 11.9° 1026.3 hPa 2.9 m/s 24.8 mm 11.9° 1026.0 hPa 3.1 m/s 10.9° 1029.0 hPa 0.8 m/s 24.8 mm
14:00 13.2° 1025.6 hPa 3.9 m/s 24.8 mm 13.4° 1025.3 hPa 4.2 m/s 11.0° 1028.3 hPa 0.6 m/s 24.8 mm
17:00 12.9° 1024.1 hPa 3.6 m/s 24.8 mm 13.1° 1023.8 hPa 3.8 m/s 11.2° 1026.9 hPa 2.3 m/s 24.8 mm
20:00 12.7° 1022.6 hPa 3.3 m/s 24.8 mm 12.7° 1022.3 hPa 3.3 m/s 12.6° 1026.3 hPa 2.8 m/s 24.8 mm
23:00 12.3° 1022.1 hPa 3.5 m/s 24.8 mm 12.3° 1021.8 hPa 3.5 m/s 12.8° 1026.2 hPa 2.7 m/s 24.8 mm
 07:21     19:40    Daglengte: 12:19 Zaterdag 21 Sep
02:00 12.0° 1021.5 hPa 3.7 m/s 24.9 mm 11.9° 1021.2 hPa 3.8 m/s 13.1° 1025.4 hPa 2.6 m/s 24.9 mm
05:00 11.9° 1020.1 hPa 4.2 m/s 25.0 mm 11.8° 1019.8 hPa 4.3 m/s 13.1° 1024.3 hPa 2.9 m/s 25.0 mm
08:00 11.7° 1018.7 hPa 4.7 m/s 25.0 mm 11.6° 1018.3 hPa 4.9 m/s 12.6° 1023.6 hPa 2.9 m/s 25.0 mm
11:00 13.2° 1017.8 hPa 5.5 m/s 25.0 mm 13.2° 1017.3 hPa 5.8 m/s 13.6° 1023.2 hPa 2.8 m/s 25.0 mm
14:00 14.8° 1016.8 hPa 6.4 m/s 25.0 mm 14.8° 1016.3 hPa 6.7 m/s 14.4° 1022.1 hPa 3.4 m/s 25.0 mm
17:00 14.3° 1016.3 hPa 6.0 m/s 25.0 mm 14.3° 1016.0 hPa 6.4 m/s 14.4° 1020.5 hPa 2.1 m/s 25.0 mm
20:00 13.8° 1015.9 hPa 5.8 m/s 25.0 mm 13.8° 1015.6 hPa 6.1 m/s 13.4° 1019.8 hPa 2.0 m/s 25.0 mm
23:00 13.1° 1014.9 hPa 5.8 m/s 25.0 mm 13.2° 1014.5 hPa 6.2 m/s 12.9° 1018.9 hPa 2.2 m/s 25.0 mm
 07:24     19:37    Daglengte: 12:13 Zondag 22 Sep
02:00 12.6° 1013.8 hPa 6.1 m/s 25.0 mm 12.5° 1013.4 hPa 6.2 m/s 13.3° 1017.8 hPa 5.5 m/s 25.0 mm
05:00 12.7° 1012.0 hPa 6.0 m/s 25.0 mm 12.7° 1011.6 hPa 6.2 m/s 13.2° 1015.9 hPa 3.9 m/s 25.0 mm
08:00 12.8° 1010.3 hPa 6.0 m/s 25.0 mm 12.8° 1009.9 hPa 6.2 m/s 12.7° 1014.3 hPa 3.6 m/s 25.0 mm
11:00 14.3° 1009.8 hPa 5.8 m/s 25.0 mm 14.3° 1009.5 hPa 6.0 m/s 14.9° 1013.5 hPa 3.6 m/s 25.0 mm
14:00 15.9° 1009.3 hPa 5.5 m/s 25.0 mm 15.8° 1009.1 hPa 5.7 m/s 16.7° 1011.8 hPa 3.7 m/s 25.0 mm
17:00 15.1° 1009.0 hPa 5.6 m/s 25.0 mm 14.9° 1008.9 hPa 5.7 m/s 17.1° 1010.5 hPa 5.4 m/s 25.0 mm
20:00 14.2° 1008.7 hPa 5.4 m/s 25.0 mm 14.1° 1008.6 hPa 5.6 m/s 15.7° 1009.8 hPa 3.2 m/s 25.0 mm
 07:26     19:34    Daglengte: 12:08 Maandag 23 Sep
02:00 13.8° 1006.4 hPa 5.9 m/s 26.1 mm 13.7° 1006.2 hPa 6.1 m/s 14.9° 1008.3 hPa 3.3 m/s 26.1 mm
08:00 12.9° 1011.2 hPa 3.9 m/s 26.6 mm 12.8° 1011.3 hPa 3.7 m/s 14.4° 1009.8 hPa 6.2 m/s 26.6 mm
14:00 14.4° 1011.8 hPa 4.9 m/s 26.7 mm 14.4° 1011.7 hPa 4.8 m/s 14.7° 1012.3 hPa 6.0 m/s 26.7 mm
20:00 12.8° 1008.9 hPa 5.0 m/s 26.8 mm 12.8° 1008.4 hPa 5.1 m/s 13.1° 1014.1 hPa 3.4 m/s 26.8 mm
 07:28     19:31    Daglengte: 12:03 Dinsdag 24 Sep
02:00 12.3° 1011.8 hPa 4.5 m/s 27.0 mm 12.3° 1011.5 hPa 4.6 m/s 12.8° 1015.5 hPa 3.3 m/s 27.0 mm
08:00 12.2° 1009.3 hPa 4.1 m/s 27.0 mm 12.2° 1008.7 hPa 4.2 m/s 11.7° 1015.5 hPa 2.7 m/s 27.0 mm
14:00 14.2° 1009.5 hPa 4.2 m/s 27.0 mm 14.2° 1009.0 hPa 4.6 m/s 13.9° 1014.9 hPa 0.4 m/s 27.0 mm
20:00 13.4° 1006.6 hPa 4.9 m/s 27.0 mm 13.4° 1006.0 hPa 5.1 m/s 13.4° 1013.4 hPa 2.4 m/s 27.0 mm
 07:30     19:28    Daglengte: 11:58 Woensdag 25 Sep
02:00 14.1° 1012.0 hPa 2.7 m/s 27.0 mm 14.1° 1012.0 hPa 2.7 m/s 27.0 mm
08:00 14.6° 1010.0 hPa 5.4 m/s 27.2 mm 14.6° 1010.0 hPa 5.4 m/s 27.2 mm
14:00 16.2° 1008.0 hPa 5.2 m/s 27.6 mm 16.2° 1008.0 hPa 5.2 m/s 27.6 mm
20:00 13.1° 1010.1 hPa 3.1 m/s 1.8 mm
 07:33     19:25    Daglengte: 11:52 Donderdag 26 Sep
02:00 12.8° 1009.8 hPa 3.2 m/s 2.0 mm
08:00 12.6° 1009.4 hPa 3.2 m/s 2.2 mm
14:00 13.3° 1009.0 hPa 4.3 m/s 1.3 mm
20:00 13.0° 1008.1 hPa 3.1 m/s 2.5 mm
 07:35     19:22    Daglengte: 11:47 Vrijdag 27 Sep
02:00 12.5° 1008.0 hPa 2.4 m/s 1.4 mm
08:00 12.3° 1007.4 hPa 2.1 m/s 1.1 mm
14:00 13.1° 1008.5 hPa 3.1 m/s 1.0 mm
20:00 12.4° 1009.0 hPa 2.1 m/s 1.2 mm
 07:37     19:19    Daglengte: 11:42 Zaterdag 28 Sep
02:00 12.1° 1009.6 hPa 2.2 m/s 1.7 mm
08:00 12.1° 1009.2 hPa 1.8 m/s 1.3 mm
14:00 13.0° 1009.4 hPa 2.4 m/s 2.1 mm
20:00 12.6° 1009.1 hPa 1.7 m/s 1.7 mm
 07:39     19:16    Daglengte: 11:37 Zondag 29 Sep
02:00 12.0° 1009.6 hPa 1.3 m/s 1.3 mm
08:00 11.8° 1009.1 hPa 2.1 m/s 1.2 mm
14:00 12.3° 1010.7 hPa 2.9 m/s 1.6 mm
20:00 11.7° 1011.0 hPa 2.1 m/s 1.0 mm
 07:42     19:13    Daglengte: 11:31 Maandag 30 Sep
02:00 11.2° 1012.0 hPa 2.2 m/s 0.9 mm
08:00 10.9° 1011.8 hPa 1.6 m/s 1.1 mm
14:00 12.2° 1012.4 hPa 2.3 m/s 2.1 mm
20:00 11.7° 1012.4 hPa 1.8 m/s 1.3 mm
FMI Hirlam - 7.5 km EWN WRFDA - 12 km DWD ICON - 7 km GFS - 25 km Basiskaart






























































Updatetijd (Europe/Amsterdam) Resolutie Lengte Stap
FMI Hirlam 19:00, 01:00, 07:00, 13:00 7.5 km 49h 1h
EWN WRFDA 21:30, 03:30, 09:30, 15:30 12 km 73h 1h
DWD ICON 17:45, 23:45, 05:45, 11:45 7 km 75h 1h
GFS 20:30, 02:30, 08:30, 14:30 25 km 237h 3h
30+ mm
25-30 mm
20-25 mm
15-20 mm
10-15 mm
6-10 mm
4-6 mm
2-4 mm
1-2 mm
0.5-1 mm
0.2-0.5 mm
0.1-0.2 mm
30+ mm
25-30 mm
20-25 mm
15-20 mm
10-15 mm
6-10 mm
4-6 mm
2-4 mm
1-2 mm
0.5-1 mm
0.2-0.5 mm
0.1-0.2 mm
Sneeuwval
Natte sneeuw
Hagel
Vorst
30+ mm
25-30 mm
20-25 mm
15-20 mm
10-15 mm
6-10 mm
4-6 mm
2-4 mm
1-2 mm
0.5-1 mm
0.2-0.5 mm
0.1-0.2 mm
Sneeuwval
Natte sneeuw
Hagel
Vorst
Onweer
50 mm
40 mm
30 mm
26 mm
22 mm
18 mm
14 mm
10 mm
9 mm
8 mm
7 mm
6 mm
5 mm
4.5 mm
4 mm
3.5 mm
3 mm
2.5 mm
2 mm
1.5 mm
1 mm
0.8 mm
0.6 mm
0.4 mm
0.2 mm
0.05 mm
35°
30°
25°
20°
15°
10°
-5°
-10°
-15°
-20°
-25°
-30°
-35°
120> km/h
105 km/h
90 km/h
75 km/h
60 km/h
50 km/h
40 km/h
30 km/h
20 km/h
10 km/h
0 km/h
2600 J/kg
2400 J/kg
2200 J/kg
2000 J/kg
1800 J/kg
1600 J/kg
1400 J/kg
1200 J/kg
1000 J/kg
800 J/kg
600 J/kg
400 J/kg
200 J/kg
70 dBZ
65 dBZ
60 dBZ
55 dBZ
50 dBZ
45 dBZ
40 dBZ
35 dBZ
30 dBZ
25 dBZ
20 dBZ
15 dBZ
10 dBZ
5 dBZ
-1 K
-2 K
-3 K
-4 K
-5 K
-6 K
-7 K
-8 K
-9 K
950 m²/s²
900 m²/s²
850 m²/s²
800 m²/s²
750 m²/s²
700 m²/s²
650 m²/s²
600 m²/s²
550 m²/s²
500 m²/s²
450 m²/s²
400 m²/s²
350 m²/s²
300 m²/s²
250 m²/s²
200 m²/s²
150 m²/s²
100 m²/s²
46 m/s
44 m/s
42 m/s
40 m/s
38 m/s
36 m/s
34 m/s
32 m/s
30 m/s
28 m/s
26 m/s
24 m/s
22 m/s
20 m/s
16 m/s
12 m/s
8 m/s
4 m/s
30 m/s
28 m/s
26 m/s
24 m/s
22 m/s
20 m/s
18 m/s
16 m/s
14 m/s
12 m/s
10 m/s
8 m/s
6 m/s
4 m/s
2 m/s
3.0
2.8
2.6
2.4
2.2
2.0
1.8
1.6
1.4
1.2
1.0
0.8
0.6
0.4
0.2
15
14
13
12
11
10
9
8
7
6
5
4
3
2
1
90%
80%
70%
60%
50%
40%
30%
20%
10%
42
40
38
36
34
32
30
28
26
24
22
20
18
16
14
12
90+ cm
80-90 cm
70-80 cm
60-70 cm
50-60 cm
40-50 cm
30-40 cm
20-30 cm
10-20 cm
1-10 cm
Sneeuwval
Natte sneeuw
Regen
>120 mm
115 mm
110 mm
105 mm
100 mm
95 mm
90 mm
85 mm
80 mm
75 mm
70 mm
65 mm
60 mm
55 mm
50 mm
45 mm
45 mm
40 mm
35 mm
30 mm
25 mm
20 mm
15 mm
10 mm
5 mm
0.1 mm
960 hPa
880 hPa
800 hPa
720 hPa
640 hPa
560 hPa
584 gpdm
568 gpdm
552 gpdm
536 gpdm
520 gpdm
504 gpdm
488 gpdm
Extreem zwaar Noodweer Kans op onweer
15% 15% 5% 50% 15%

Dag




Kaart






35°
30°
25°
20°
15°
10°
-5°
-10°
-15°
-20°
-25°
-30°
-35°
120> km/h
105 km/h
90 km/h
75 km/h
60 km/h
50 km/h
40 km/h
30 km/h
20 km/h
10 km/h
0 km/h
Extreem zwaar Noodweer Kans op onweer
15% 15% 5% 50% 15%
>120 mm
115 mm
110 mm
105 mm